Miscellaneous Local Product
Issued by NWS Hastings, NE

Home | Current Version | Previous Version | Graphics & Text | Print | Product List | Glossary On
Versions: 1 2 3 4 5 6 7 8 9 10 11 12 13 14 15 16 17 18 19 20 21 22 23 24 25 26 27 28 29 30 31 32 33 34 35 36 37 38 39 40 41 42 43 44 45 46 47 48 49 50
000
AXUS43 KGID 262102
MISGRI

GID CWA HOURLY WEATHER ROUNDUP
NATIONAL WEATHER SERVICE HASTINGS NE
400 PM CDT THU MAR 26 2015

NOTE: "FAIR" INDICATES FEW OR NO CLOUDS BELOW 12,000 FEET WITH NO
SIGNIFICANT WEATHER AND/OR OBSTRUCTIONS TO VISIBILITY.

...SOUTH CENTRAL NEBRASKA...

CITY           SKY/WX    TMP DP  RH WIND       PRES   REMARKS
GRAND ISLAND   CLOUDY    49  29  46 VRB5      30.06F
HASTINGS       PTSUNNY   53  28  38 SW6G20    30.03F
KEARNEY        CLOUDY    55  28  35 W9        29.99F
ORD            CLOUDY    49  25  39 VRB6      30.02F
YORK           CLOUDY    46  28  49 CALM      30.08S
AURORA         LGT RAIN  46  30  54 W5        30.07S
LEXINGTON      CLOUDY    58  27  31 W17       29.99F
HOLDREGE       CLOUDY    57  27  31 W15       29.99F
HEBRON         CLOUDY    53  27  37 S9G16     30.05F

...NEBRASKA PANHANDLE...

CITY           SKY/WX    TMP DP  RH WIND       PRES   REMARKS
CHADRON        CLOUDY    52  28  39 N13G20    30.08F
ALLIANCE       CLOUDY    52  29  41 NW28G37   30.07F
SCOTTSBLUFF    CLOUDY    53  31  42 NW25G33   30.11F
SIDNEY         CLOUDY    55  28  35 N31G38    30.10F

...WESTERN AND NORTH CENTRAL NEBRASKA...

CITY           SKY/WX    TMP DP  RH WIND       PRES   REMARKS
VALENTINE      CLOUDY    39  30  70 NE15      30.12R WCI  31
AINSWORTH      PTSUNNY   43  32  65 NE23      30.09R
ONEILL         LGT SNOW  33  33  99 NE10      30.12S VSB 1   WCI  25
BROKEN BOW     LGT RAIN  55  34  45 N15       30.00S
IMPERIAL         N/A     57  28  33 NW24G35   30.06F
NORTH PLATTE   CLOUDY    58  27  30 NW24G33   30.03S
MCCOOK         CLOUDY    61  25  25 NW25G32   30.02F

...EASTERN NEBRASKA...

CITY           SKY/WX    TMP DP  RH WIND       PRES   REMARKS
NORFOLK        LGT SNOW  33  32  96 N7        30.13S VSB 3/4 WCI  27
SO SIOUX CITY  CLOUDY    41  23  48 N12       30.14F
TEKAMAH        CLOUDY    45  23  42 N12       30.12F
COLUMBUS       CLOUDY    37  28  70 NE8       30.13S WCI  31
ALBION         LGT RAIN  36  32  87 E10       30.10S WCI  28
OMAHA EPPLEY   CLOUDY    48  23  37 N12       30.09F
OFFUTT AFB     PTSUNNY   49  22  34 VRB6      30.08F
MILLARD        PTSUNNY   49  24  36 N8        30.10F
LINCOLN        CLOUDY    50  25  37 VRB3      30.09F
NEBRASKA CITY  SUNNY     48  21  35 W3        30.09F
BEATRICE       CLOUDY    47  26  43 NE5       30.08F
FALLS CITY     MOSUNNY   49  26  41 VRB5      30.10F

...NORTHERN KANSAS...

CITY           SKY/WX    TMP DP  RH WIND       PRES   REMARKS
GOODLAND       PTSUNNY   61  24  24 N25G37    30.07F
HILL CITY      PTSUNNY   63  26  24 NW17      30.01F
NORTON         CLOUDY    63  18  17 NW26G32   29.98F
PHILLIPSBURG   PTSUNNY   63  34  34 SW15      30.00F
SMITH CENTER   PTSUNNY   59  30  33 SW10      30.02F
BELOIT         PTSUNNY   57  28  33 S9G16     30.03F
HAYS           PTSUNNY   61  34  36 W7        30.03F
RUSSELL        MOSUNNY   59  31  34 SW16      30.03F
CONCORDIA      CLOUDY    55  27  34 VRB5      30.05F
SALINA         MOSUNNY   57  28  33 SW7       30.09F
TOPEKA         SUNNY     52  27  38 NW10      30.12F



USA.gov is the U.S. government's official web portal to all federal, state and local government web resources and services.